Regional Weather Roundup
Issued by NWS

Home | Current Version | Previous Version | Graphics & Text | Print | Product List | Glossary On
Versions: 1 2 3 4 5 6 7 8 9 10 11 12 13 14 15 16 17 18 19 20 21 22 23 24 25 26 27 28 29 30 31 32 33 34 35 36 37 38 39 40 41 42 43 44 45 46 47 48 49 50
000
ASUS45 KCYS 200010
RWRWY

WYOMING REGIONAL WEATHER ROUNDUP
NATIONAL WEATHER SERVICE CHEYENNE WY
600 PM MDT TUE AUG 19 2014

NOTE:  "FAIR" INDICATES FEW OR NO CLOUDS BELOW 12,000 FEET
WITH NO SIGNIFICANT WEATHER AND/OR OBSTRUCTIONS TO VISIBILITY.

WYZ001-200100-
YELLOWSTONE NATIONAL PARK

CITY           SKY/WX    TMP DP  RH WIND       PRES   REMARKS
LK YELLOWSTONE   N/A     60  38  43 NW8G16    30.10R
6HR MIN TEMP:  59; 6HR MAX TEMP:  70;

W YELLOWSTONE  NOT AVBL

$$
WYZ002>013-054>058-071-098>099-200100-
NORTHERN WYOMING

CITY           SKY/WX    TMP DP  RH WIND       PRES   REMARKS
JACKSON        PTSUNNY   66  45  45 S12       30.01R
CODY           CLOUDY    79  43  27 S16G22    29.83F
GREYBULL       CLOUDY    89  29  11 VRB3      29.72F
6HR MIN TEMP:  82; 6HR MAX TEMP:  92;

WORLAND        CLOUDY    85  36  17 W3        29.77F
6HR MIN TEMP:  81; 6HR MAX TEMP:  92;

SHERIDAN       CLOUDY    87  43  21 E5        29.73F
6HR MIN TEMP:  87; 6HR MAX TEMP:  94;

BUFFALO        CLOUDY    82  41  23 E3        29.82F
6HR MIN TEMP:  76; 6HR MAX TEMP:  88; 6HR PCP:  0.04;

GILLETTE       PTSUNNY   88  35  15 NE3       29.77F
6HR MIN TEMP:  85; 6HR MAX TEMP:  93;

HULETT         FAIR      88  36  15 MISG      29.79
NEWCASTLE        N/A     90  34  13 SE9       29.78

$$
WYZ014>020-022>026-101>103-200100-
CENTRAL WYOMING

CITY           SKY/WX    TMP DP  RH WIND       PRES   REMARKS
BIG PINEY      CLOUDY    63  47  55 S6        30.06F
6HR MIN TEMP:  61; 6HR MAX TEMP:  70;

PINEDALE       LGT RAIN  59  43  55 E6        30.07F
DUBOIS         LGT RAIN  54  45  71 MISG      30.07S
LANDER         PTSUNNY   77  44  30 W3        29.90S
6HR MIN TEMP:  72; 6HR MAX TEMP:  83; 6HR PCP:  0.02;

RIVERTON       CLOUDY    77  40  26 S20G30    29.89R
6HR MIN TEMP:  76; 6HR MAX TEMP:  84;

CASPER         PTSUNNY   79  36  21 SW22G30   29.88R
6HR MIN TEMP:  79; 6HR MAX TEMP:  89;

DOUGLAS        PTSUNNY   85  33  15 VRB3      29.87R
6HR MIN TEMP:  84; 6HR MAX TEMP:  90;


$$
WYZ021-027>030-104>119-200100-
SOUTHERN WYOMING

CITY           SKY/WX    TMP DP  RH WIND       PRES   REMARKS
EVANSTON       PTSUNNY   60  50  69 SE12      30.04F
6HR MIN TEMP:  53; 6HR MAX TEMP:  61; 6HR PCP:  0.26;

KEMMERER       MOCLDY    63  43  48 CALM      30.06S
FORT BRIDGER   FAIR      62  54  76 S7        30.07F
ROCK SPRINGS   LGT RAIN  60  53  77 SW7       30.02F
6HR MIN TEMP:  57; 6HR MAX TEMP:  67; 6HR PCP: TRACE;

DIXON          FAIR      69  50  49 SW3       30.06S
RAWLINS        PTSUNNY   65  46  50 SW8       30.04F
6HR MIN TEMP:  61; 6HR MAX TEMP:  74; 6HR PCP: TRACE;

SARATOGA       FAIR      64  48  55 MISG      30.07F
LARAMIE        PTSUNNY   70  41  34 NE7       30.05F
6HR MIN TEMP:  69; 6HR MAX TEMP:  80; 6HR PCP: TRACE;

CHEYENNE       PTSUNNY   74  47  38 N13       29.96F
6HR MIN TEMP:  66; 6HR MAX TEMP:  86; 6HR PCP:  0.06;

TORRINGTON     CLOUDY    82  45  27 W21G35    29.80F
6HR MIN TEMP:  82; 6HR MAX TEMP:  94;

PINE BLUFFS    FAIR      79  46  31 N14G23    29.90S

$$



USA.gov is the U.S. government's official web portal to all federal, state and local government web resources and services.